OneWeb SL0546

operational
NORAD ID: 56048 Int'l Des: 2023-043 Owner: ONEWEBN Country: UK Constellation: oneweb
LEOCIRCULARPOLARONEWEB_TYPE

OneWeb SL0546について

説明を読み込み中...

リアルタイム位置

3D地球を読み込み中...

次回通過

高度履歴

Altitude vs Time

uPlot chart will show altitude changes over time

軌道要素

1 56048U 23043C 25350.78288842 .00000013 00000-0 51946-6 0 9992
2 56048 87.9060 265.0870 0001122 90.9054 269.2206 13.16597052134965
Epoch: Dec 16, 2025 • Age: 16 hours

現在のステータス

高度 1227.4 km
速度 7.24 km/s
衛星直下点 -87.91°S, 76.86°W
打ち上げ日 Mar 26, 2023
運用期間 2.7 years
タイプ internet

技術仕様

分類 Payload
質量 148.00 kg
乾燥質量 140.00 kg
総質量 148.00 kg
長さ 1.30 m
直径 1.00 m
スパン 5.00 m
形状 Trapezoid+2 pan
製造者 ONEWUS
バスタイプ ARROW
フェーズステータス In Orbit
所有者/国 ONEWEBN/UK

大規模コンステレーション

Loading constellations...